User: anonymous   Login
Location: Unspecified
(0.0000°N, 0.0000°E)
Time: 22:50:45
(UTC+00:00)
Language:

USA 186 - Orbit

View from above orbital plane
View from above orbital plane
View from above satellite
View from above satellite

Ground track
Ground track

The orbit data is extracted from the following two-line orbital elements,

1 28888U 05042A   14294.75722949 0.00054000  00000-0  25943-3 0    08
2 28888  96.8711 331.6122 0138880 201.8636 158.1362 15.69612254    07
Epoch (UTC): 21 October 2014 18:10:24
Eccentricity: 0.0138880
inclination: 96.8711°
perigee height: 266 km
apogee height: 453 km
right ascension of ascending node: 331.6122°
argument of perigee: 201.8636°
revolutions per day: 15.69612254
mean anomaly at epoch: 158.1362°
orbit number at epoch: 0

The dashed part of the orbit path shows where the satellite is in the earth's shadow,  

DLR